Tracking 19146 objects as of 22-Apr-2018
HD Live streaming from Space Station
objects crossing your sky now

FENGYUN 1C DEB

Track FENGYUN 1C DEB now!
10-day predictions


NORAD ID: 30393
Int'l Code: 1999-025ADG
Perigee: 856.0 km
Apogee: 959.6 km
Inclination: 99.3 °
Period: 103.0 minutes
Semi major axis: 7278 km
RCS: 0.039 m2 (small)
Launch date: May 10, 1999
Source: People's Republic of China (PRC)
Launch site: Taiyaun Space Center, China (TSC)

Note: This is SATELLITE DEBRIS
aabbcc
Your satellite tracking list
Your tracking list is empty




NASA's NSSDC Master Catalog

Two Line Element Set (TLE):
1 30393U 99025ADG 18112.48738545 -.00000108 +00000-0 -42309-4 0  9993
2 30393 099.3204 092.4951 0071139 317.8752 162.5863 13.98025482573201
Source of the keplerian elements: AFSPC